Back to catalog

COSMOS 1275 DEB

AlivePO
NORAD 20089·DEBRIS·🇷🇺 Russia

Launched Jun 4, 1981 from Plesetsk Cosmodrome

Loading…

Next Passes (next 24 hours)

TLE

FreshSource: Space-Track

Epoch: Sep 14, 2026, 02:23 UTC

1 20089U 81053MK  26257.09978083  .00001678  00000-0  88389-3 0  9993
2 20089  82.7455 304.1342 0042992 191.6879 168.3304 14.13005113746850

Track COSMOS 1275 DEB in real time with AllMySat

Download on the App Store